When you browse on this site, cookies collect data to enhance your experience and personalize the content and advertising you see.
Visit our Privacy Policy to learn more. By continuing to use the site, you agree to this use of cookies and data.
  • In Portugal
  • List of Countries
  • For 7 days
  • Water Temperature
  • Satellite Maps
  • Weather Map
  • Weather Widgets
  • user-avatar
    Login

    Hourly Weather Gronajny

    Today, 10 December, Monday

    Time Temperature Precipitation Wind Pressure Humidity
    00:00 +3°C° 0 mm 4 mps 740 mmHg 93%
    01:00 +3°C° 0 mm 4 mps 740 mmHg 94%
    02:00 +3°C° 0.2 mm 4 mps 740 mmHg 92%
    03:00 +3°C° 0.2 mm 5 mps 741 mmHg 90%
    04:00 +3°C° 0.2 mm 5 mps 741 mmHg 88%
    05:00 +2°C° 0.3 mm 5 mps 741 mmHg 84%
    06:00 +2°C° 0.3 mm 6 mps 742 mmHg 79%
    07:00 +2°C° 0.3 mm 6 mps 742 mmHg 75%
    08:00 +2°C° 0 mm 6 mps 743 mmHg 75%
    09:00 +2°C° 0 mm 6 mps 743 mmHg 76%
    10:00 +2°C° 0 mm 6 mps 744 mmHg 76%
    11:00 +3°C° 0 mm 6 mps 744 mmHg 73%
    12:00 +3°C° 0 mm 6 mps 745 mmHg 69%
    13:00 +3°C° 0 mm 6 mps 745 mmHg 65%
    14:00 +3°C° 0 mm 5 mps 745 mmHg 68%
    15:00 +2°C° 0 mm 5 mps 745 mmHg 70%
    16:00 +1°C° 0 mm 4 mps 746 mmHg 73%
    17:00 +1°C° 0 mm 4 mps 746 mmHg 75%
    18:00 0°C° 0 mm 4 mps 746 mmHg 78%
    19:00 0°C° 0 mm 4 mps 746 mmHg 80%
    20:00 0°C° 0 mm 4 mps 746 mmHg 82%
    21:00 -1°C° 0 mm 4 mps 746 mmHg 84%
    22:00 -1°C° 0 mm 4 mps 747 mmHg 86%
    23:00 0°C° 0 mm 3 mps 747 mmHg 87%

    Tomorrow, 11 December, Tuesday

    Time Temperature Precipitation Wind Pressure Humidity
    00:00 0°C° 0 mm 3 mps 747 mmHg 88%
    01:00 0°C° 0 mm 3 mps 747 mmHg 89%
    02:00 0°C° 0.1 mm 3 mps 747 mmHg 90%
    03:00 0°C° 0.1 mm 3 mps 747 mmHg 91%
    04:00 +1°C° 0.1 mm 2 mps 747 mmHg 92%
    05:00 +1°C° 0.1 mm 2 mps 748 mmHg 92%
    06:00 +1°C° 0.1 mm 2 mps 748 mmHg 92%
    07:00 +1°C° 0.1 mm 2 mps 748 mmHg 93%
    08:00 +1°C° 0 mm 2 mps 749 mmHg 92%
    09:00 +1°C° 0 mm 2 mps 750 mmHg 91%
    10:00 +2°C° 0 mm 2 mps 750 mmHg 89%
    11:00 +2°C° 0 mm 2 mps 751 mmHg 87%
    12:00 +2°C° 0 mm 2 mps 751 mmHg 85%
    13:00 +2°C° 0 mm 3 mps 751 mmHg 82%
    14:00 +2°C° 0 mm 2 mps 752 mmHg 85%
    15:00 +1°C° 0 mm 2 mps 752 mmHg 87%
    16:00 +1°C° 0 mm 2 mps 753 mmHg 90%
    17:00 +1°C° 0 mm 2 mps 753 mmHg 90%
    18:00 -1°C° 0 mm 2 mps 754 mmHg 91%
    19:00 -1°C° 0 mm 2 mps 754 mmHg 92%
    20:00 -1°C° 0 mm 2 mps 755 mmHg 91%
    21:00 -1°C° 0 mm 2 mps 755 mmHg 91%
    22:00 -1°C° 0 mm 2 mps 756 mmHg 91%
    23:00 +1°C° 0 mm 1 mps 756 mmHg 91%

    Day after tomorrow, 12 December, Wednesday

    Time Temperature Precipitation Wind Pressure Humidity
    00:00 +1°C° 0 mm 1 mps 756 mmHg 91%
    01:00 +1°C° 0 mm 1 mps 757 mmHg 91%
    02:00 +1°C° 0.1 mm 1 mps 757 mmHg 91%
    03:00 +1°C° 0.1 mm 1 mps 757 mmHg 91%
    04:00 +1°C° 0.1 mm 1 mps 758 mmHg 91%
    05:00 +1°C° 0.1 mm 1 mps 758 mmHg 92%
    06:00 +1°C° 0.1 mm 1 mps 758 mmHg 92%
    07:00 +1°C° 0.1 mm 1 mps 759 mmHg 92%
    08:00 +1°C° 0 mm 1 mps 759 mmHg 91%
    09:00 +1°C° 0 mm 2 mps 759 mmHg 90%
    10:00 +1°C° 0 mm 2 mps 760 mmHg 89%
    11:00 +1°C° 0 mm 2 mps 760 mmHg 87%
    12:00 +1°C° 0 mm 2 mps 760 mmHg 86%
    13:00 +2°C° 0 mm 2 mps 760 mmHg 85%
    14:00 +1°C° 0 mm 2 mps 760 mmHg 87%
    15:00 +1°C° 0 mm 2 mps 760 mmHg 90%
    16:00 -1°C° 0 mm 2 mps 760 mmHg 93%
    17:00 -1°C° 0.1 mm 3 mps 760 mmHg 93%
    18:00 0°C° 0.1 mm 3 mps 761 mmHg 93%
    19:00 0°C° 0.1 mm 3 mps 761 mmHg 93%
    20:00 0°C° 0 mm 3 mps 761 mmHg 92%
    21:00 -1°C° 0 mm 3 mps 761 mmHg 92%
    22:00 -1°C° 0 mm 3 mps 762 mmHg 92%
    23:00 -1°C° 0 mm 3 mps 762 mmHg 92%

    13 December, Thursday

    Time Temperature Precipitation Wind Pressure Humidity
    00:00 -1°C° 0 mm 3 mps 762 mmHg 92%
    01:00 -1°C° 0 mm 3 mps 762 mmHg 93%
    02:00 -1°C° 0 mm 3 mps 762 mmHg 93%
    03:00 -1°C° 0 mm 3 mps 762 mmHg 93%
    04:00 -1°C° 0 mm 3 mps 762 mmHg 93%
    05:00 -1°C° 0 mm 3 mps 762 mmHg 91%
    06:00 -1°C° 0 mm 3 mps 762 mmHg 90%
    07:00 -1°C° 0 mm 3 mps 762 mmHg 88%
    08:00 -1°C° 0 mm 3 mps 761 mmHg 87%
    09:00 -1°C° 0 mm 3 mps 761 mmHg 86%
    10:00 -1°C° 0 mm 3 mps 761 mmHg 84%
    11:00 0°C° 0 mm 3 mps 761 mmHg 83%
    12:00 0°C° 0 mm 3 mps 761 mmHg 81%
    13:00 0°C° 0 mm 3 mps 761 mmHg 80%
    14:00 -1°C° 0 mm 3 mps 761 mmHg 81%
    15:00 -1°C° 0 mm 3 mps 760 mmHg 83%
    16:00 -1°C° 0 mm 2 mps 760 mmHg 84%
    17:00 -1°C° 0 mm 2 mps 760 mmHg 85%
    18:00 -1°C° 0 mm 3 mps 760 mmHg 86%
    19:00 -1°C° 0 mm 3 mps 760 mmHg 86%
    20:00 -1°C° 0 mm 3 mps 760 mmHg 86%
    21:00 -2°C° 0 mm 3 mps 760 mmHg 87%
    22:00 -2°C° 0 mm 2 mps 760 mmHg 87%
    23:00 -2°C° 0 mm 2 mps 760 mmHg 87%

    14 December, Friday

    Time Temperature Precipitation Wind Pressure Humidity
    00:00 -2°C° 0 mm 2 mps 760 mmHg 88%
    01:00 -2°C° 0 mm 2 mps 760 mmHg 88%
    02:00 -2°C° 0 mm 2 mps 760 mmHg 88%
    03:00 -2°C° 0 mm 2 mps 760 mmHg 89%
    04:00 -2°C° 0 mm 2 mps 760 mmHg 89%
    05:00 -2°C° 0 mm 2 mps 760 mmHg 89%
    06:00 -2°C° 0 mm 2 mps 760 mmHg 89%
    07:00 -2°C° 0 mm 2 mps 760 mmHg 90%
    08:00 -2°C° 0 mm 2 mps 761 mmHg 88%
    09:00 -1°C° 0 mm 3 mps 761 mmHg 87%
    10:00 -1°C° 0 mm 3 mps 761 mmHg 86%
    11:00 -1°C° 0 mm 3 mps 761 mmHg 84%
    12:00 -1°C° 0 mm 3 mps 761 mmHg 83%
    13:00 0°C° 0 mm 3 mps 761 mmHg 82%
    14:00 0°C° 0 mm 3 mps 761 mmHg 83%
    15:00 -1°C° 0 mm 3 mps 762 mmHg 85%
    16:00 -1°C° 0 mm 3 mps 762 mmHg 86%
    17:00 -1°C° 0 mm 3 mps 762 mmHg 86%
    18:00 -1°C° 0 mm 3 mps 762 mmHg 86%
    19:00 -1°C° 0 mm 3 mps 762 mmHg 86%
    20:00 -2°C° 0 mm 3 mps 762 mmHg 86%
    21:00 -2°C° 0 mm 3 mps 762 mmHg 87%
    22:00 -2°C° 0 mm 3 mps 762 mmHg 87%
    23:00 -2°C° 0 mm 3 mps 762 mmHg 87%

    15 December, Saturday

    Time Temperature Precipitation Wind Pressure Humidity
    00:00 -2°C° 0 mm 3 mps 762 mmHg 86%
    01:00 -2°C° 0 mm 3 mps 762 mmHg 86%
    02:00 -2°C° 0 mm 3 mps 762 mmHg 86%
    03:00 -2°C° 0 mm 3 mps 762 mmHg 87%
    04:00 -2°C° 0 mm 3 mps 762 mmHg 87%
    05:00 -2°C° 0 mm 3 mps 763 mmHg 87%
    06:00 -2°C° 0 mm 3 mps 763 mmHg 87%
    07:00 -2°C° 0 mm 3 mps 763 mmHg 88%
    08:00 -2°C° 0 mm 3 mps 763 mmHg 86%
    09:00 -3°C° 0 mm 4 mps 764 mmHg 84%
    10:00 -2°C° 0 mm 4 mps 764 mmHg 82%
    11:00 -2°C° 0 mm 4 mps 764 mmHg 79%
    12:00 -2°C° 0 mm 4 mps 764 mmHg 77%
    13:00 -1°C° 0 mm 3 mps 764 mmHg 75%
    14:00 -1°C° 0 mm 3 mps 764 mmHg 76%
    15:00 -1°C° 0 mm 3 mps 764 mmHg 78%
    16:00 -2°C° 0 mm 3 mps 764 mmHg 79%
    17:00 -2°C° 0 mm 3 mps 764 mmHg 81%
    18:00 -2°C° 0 mm 3 mps 764 mmHg 83%
    19:00 -4°C° 0 mm 3 mps 764 mmHg 85%
    20:00 -4°C° 0 mm 3 mps 764 mmHg 86%
    21:00 -4°C° 0 mm 3 mps 764 mmHg 88%
    22:00 -4°C° 0 mm 3 mps 764 mmHg 89%
    23:00 -4°C° 0 mm 3 mps 764 mmHg 90%
    Show more